Tracking 19832 objects as of 24-Aug-2019
HD Live streaming from Space Station
objects crossing your sky now

CHANG'E 4

Track CHANG'E 4 now!
10-day predictions


NORAD ID: 43845
Int'l Code: 2018-103A
Perigee: 270.6 km
Apogee: 283.9 km
Inclination: 28.9 °
Period: 89.9 minutes
Semi major axis: 6648 km
RCS: Unknown
Launch date: December 7, 2018
Source: People's Republic of China (PRC)
Launch site: Xichang Space Center, China (XSC)
aabbcc
Your satellite tracking list
Your tracking list is empty




NASA's NSSDC Master Catalog

Two Line Element Set (TLE):
1 43845U 18103A   18341.76644677 +.00002075 -65600-5 +00000-0 0  9998
2 43845 028.8798 349.8100 0010000 102.8623 000.0000 16.01555694000008
Source of the keplerian elements: AFSPC